Hemel Hempstead, United Kingdom
Current Conditions -  °F | °C
As of 2:20 PM on Thursday 30 Oct 2014 (Local Time) from EGGW Reporting Station
Broken Clouds Broken Clouds  
Wind Chill: 61°   Ceiling: 1000
Heat Index: 61°   Visibility: 4mi
Dew Point: 61°   Wind: 7mph
Humidity: 100%   Direction: 210°SSW
Pressure: 30.06"   Gusts: NA
Location:  51.75°N, 0.47°W
Report Text: EGGW 301420Z 21006KT 180V240 7000 BKN010 16/16 Q1018
Loading
Personal Weather Stations






























Interactive Weather Map
Tropical Storm Tracking
New forecast layout! Learn more

10-Day Weather Forecast

Advertisements
Track Severe Weather on mobile